Time,TemperatureF,DewpointF,PressureIn,WindDirection,WindDirectionDegrees,WindSpeedMPH,WindSpeedGustMPH,Humidity,HourlyPrecipIn,Conditions,Clouds,dailyrainin,SoftwareType,DateUTC
2013-07-26 00:03:00,54.1,49.8,29.59,North,360,0.0,0.0,86,-99.99,,,-99.99,WSDL version 423,2013-07-26 04:03:00,
2013-07-26 00:08:00,54.1,50.3,29.59,ENE,68,0.0,0.0,88,-99.99,,,-99.99,WSDL version 423,2013-07-26 04:08:00,
2013-07-26 00:13:00,53.8,50.2,29.59,NE,48,0.0,0.0,87,-99.99,,,-99.99,WSDL version 423,2013-07-26 04:13:00,
2013-07-26 00:18:00,53.6,49.9,29.59,NE,53,0.0,0.0,88,-99.99,,,-99.99,WSDL version 423,2013-07-26 04:18:00,
2013-07-26 00:23:00,53.5,49.9,29.59,NNW,332,0.8,2.2,88,-99.99,,,-99.99,WSDL version 423,2013-07-26 04:23:00,
2013-07-26 00:28:00,53.4,50.1,29.59,North,360,0.0,2.2,89,-99.99,,,-99.99,WSDL version 423,2013-07-26 04:28:00,
2013-07-26 00:33:00,53.2,50.1,29.59,North,360,0.0,0.0,89,-99.99,,,-99.99,WSDL version 423,2013-07-26 04:33:00,
2013-07-26 00:38:00,53.1,49.9,29.59,NNE,23,0.0,0.0,89,-99.99,,,-99.99,WSDL version 423,2013-07-26 04:38:00,
2013-07-26 00:43:00,53.0,50.0,29.59,NE,39,0.0,0.0,90,-99.99,,,-99.99,WSDL version 423,2013-07-26 04:43:00,
2013-07-26 00:48:00,52.8,50.0,29.59,North,8,0.2,1.6,90,-99.99,,,-99.99,WSDL version 423,2013-07-26 04:48:00,
2013-07-26 00:53:00,52.7,50.2,29.59,NNW,331,0.0,1.6,92,-99.99,,,-99.99,WSDL version 423,2013-07-26 04:53:00,
2013-07-26 00:58:00,52.7,50.7,29.59,North,360,0.3,1.3,93,-99.99,,,-99.99,WSDL version 423,2013-07-26 04:58:00,
2013-07-26 01:03:00,52.7,50.8,29.59,NW,325,0.0,1.6,93,-99.99,,,-99.99,WSDL version 423,2013-07-26 05:03:00,
2013-07-26 01:08:00,52.7,51.0,29.59,NNW,343,0.0,1.6,94,-99.99,,,-99.99,WSDL version 423,2013-07-26 05:08:00,
2013-07-26 01:13:00,52.6,51.0,29.59,WNW,295,0.0,0.9,94,-99.99,,,-99.99,WSDL version 423,2013-07-26 05:13:00,
2013-07-26 01:18:00,52.4,50.8,29.59,NNE,17,0.0,0.0,94,-99.99,,,-99.99,WSDL version 423,2013-07-26 05:18:00,
2013-07-26 01:23:00,52.2,50.3,29.59,NNW,338,0.0,0.0,93,-99.99,,,-99.99,WSDL version 423,2013-07-26 05:23:00,
2013-07-26 01:28:00,52.1,50.5,29.59,NNW,338,0.0,0.0,94,-99.99,,,-99.99,WSDL version 423,2013-07-26 05:28:00,
2013-07-26 01:33:00,51.8,50.1,29.59,NNW,338,0.0,0.0,93,-99.99,,,-99.99,WSDL version 423,2013-07-26 05:33:00,
2013-07-26 01:38:00,51.6,49.7,29.59,North,360,0.0,0.0,93,-99.99,,,-99.99,WSDL version 423,2013-07-26 05:38:00,
2013-07-26 01:43:00,51.4,49.5,29.59,NE,45,0.0,0.0,94,-99.99,,,-99.99,WSDL version 423,2013-07-26 05:43:00,
2013-07-26 01:48:00,51.2,49.4,29.59,North,355,0.0,1.3,93,-99.99,,,-99.99,WSDL version 423,2013-07-26 05:48:00,
2013-07-26 01:53:00,51.3,49.7,29.59,North,360,0.0,1.3,94,-99.99,,,-99.99,WSDL version 423,2013-07-26 05:53:00,
2013-07-26 01:58:00,51.1,49.5,29.59,North,360,0.0,0.0,94,-99.99,,,-99.99,WSDL version 423,2013-07-26 05:58:00,
2013-07-26 02:03:00,51.0,49.6,29.59,ENE,68,0.0,0.0,96,-99.99,,,-99.99,WSDL version 423,2013-07-26 06:03:00,
2013-07-26 02:08:00,50.8,49.6,29.59,ENE,68,0.0,0.0,96,-99.99,,,-99.99,WSDL version 423,2013-07-26 06:08:00,
2013-07-26 02:13:00,50.6,49.4,29.59,ENE,68,0.0,0.0,96,-99.99,,,-99.99,WSDL version 423,2013-07-26 06:13:00,
2013-07-26 02:18:00,50.4,49.1,29.59,NNE,23,0.0,0.0,94,-99.99,,,-99.99,WSDL version 423,2013-07-26 06:18:00,
2013-07-26 02:23:00,50.2,48.6,29.59,North,350,0.0,0.0,94,-99.99,,,-99.99,WSDL version 423,2013-07-26 06:23:00,
2013-07-26 02:28:00,50.2,48.6,29.59,North,360,0.0,0.0,94,-99.99,,,-99.99,WSDL version 423,2013-07-26 06:28:00,
2013-07-26 02:33:00,50.1,48.5,29.59,NNE,18,0.0,0.0,94,-99.99,,,-99.99,WSDL version 423,2013-07-26 06:33:00,
2013-07-26 02:38:00,50.0,48.5,29.59,NE,45,0.0,0.0,96,-99.99,,,-99.99,WSDL version 423,2013-07-26 06:38:00,
2013-07-26 02:43:00,50.0,48.8,29.59,North,350,0.4,1.6,96,-99.99,,,-99.99,WSDL version 423,2013-07-26 06:43:00,
2013-07-26 02:48:00,49.9,48.8,29.59,North,357,0.8,2.0,97,-99.99,,,-99.99,WSDL version 423,2013-07-26 06:48:00,
2013-07-26 02:53:00,49.8,49.1,29.59,NW,318,0.0,2.0,98,-99.99,,,-99.99,WSDL version 423,2013-07-26 06:53:00,
2013-07-26 02:58:00,49.8,49.2,29.59,NNW,348,1.0,2.2,98,-99.99,,,-99.99,WSDL version 423,2013-07-26 06:58:00,
2013-07-26 03:03:00,49.9,49.3,29.59,North,357,0.0,2.2,98,-99.99,,,-99.99,WSDL version 423,2013-07-26 07:03:00,
2013-07-26 03:08:00,49.9,49.6,29.59,North,350,0.2,1.6,99,-99.99,,,-99.99,WSDL version 423,2013-07-26 07:08:00,
2013-07-26 03:13:00,49.8,49.5,29.59,NE,45,0.0,1.6,99,-99.99,,,-99.99,WSDL version 423,2013-07-26 07:13:00,
2013-07-26 03:18:00,49.7,49.4,29.59,NW,305,0.0,0.0,99,-99.99,,,-99.99,WSDL version 423,2013-07-26 07:18:00,
2013-07-26 03:23:00,49.6,49.3,29.59,North,6,0.0,2.5,99,-99.99,,,-99.99,WSDL version 423,2013-07-26 07:23:00,
2013-07-26 03:28:00,49.5,49.2,29.59,NW,323,0.0,2.5,99,-99.99,,,-99.99,WSDL version 423,2013-07-26 07:28:00,
2013-07-26 03:33:00,49.3,49.0,29.59,NNW,343,0.3,1.6,99,-99.99,,,-99.99,WSDL version 423,2013-07-26 07:33:00,
2013-07-26 03:38:00,49.2,48.9,29.56,NNE,20,1.1,2.7,99,-99.99,,,-99.99,WSDL version 423,2013-07-26 07:38:00,
2013-07-26 03:43:00,49.1,48.9,29.56,NNW,340,1.1,2.7,100,-99.99,,,-99.99,WSDL version 423,2013-07-26 07:43:00,
2013-07-26 03:48:00,49.1,49.1,29.56,North,354,0.0,2.2,100,-99.99,,,-99.99,WSDL version 423,2013-07-26 07:48:00,
2013-07-26 03:53:00,49.1,49.1,29.59,North,360,0.0,0.0,100,-99.99,,,-99.99,WSDL version 423,2013-07-26 07:53:00,
2013-07-26 03:58:00,49.2,49.2,29.59,North,354,0.0,0.9,100,-99.99,,,-99.99,WSDL version 423,2013-07-26 07:58:00,
2013-07-26 04:03:00,49.1,49.1,29.59,North,360,0.0,0.9,100,-99.99,,,-99.99,WSDL version 423,2013-07-26 08:03:00,
2013-07-26 04:08:00,48.9,48.9,29.56,North,360,0.0,0.0,100,-99.99,,,-99.99,WSDL version 423,2013-07-26 08:08:00,
2013-07-26 04:13:00,48.8,48.8,29.56,NNE,17,0.0,0.0,100,-99.99,,,-99.99,WSDL version 423,2013-07-26 08:13:00,
2013-07-26 04:18:00,48.7,48.7,29.56,North,8,0.0,0.0,100,-99.99,,,-99.99,WSDL version 423,2013-07-26 08:18:00,
2013-07-26 04:23:00,48.6,48.6,29.56,NE,45,0.0,0.0,100,-99.99,,,-99.99,WSDL version 423,2013-07-26 08:23:00,
2013-07-26 04:28:00,48.3,48.3,29.56,NE,45,0.0,1.1,100,-99.99,,,-99.99,WSDL version 423,2013-07-26 08:28:00,
2013-07-26 04:33:00,48.1,48.1,29.56,NNE,23,0.0,1.1,100,-99.99,,,-99.99,WSDL version 423,2013-07-26 08:33:00,
2013-07-26 04:38:00,47.9,47.9,29.56,North,360,0.0,0.0,100,-99.99,,,-99.99,WSDL version 423,2013-07-26 08:38:00,
2013-07-26 04:43:00,47.8,47.8,29.56,North,5,0.0,0.0,100,-99.99,,,-99.99,WSDL version 423,2013-07-26 08:43:00,
2013-07-26 04:48:00,47.7,47.7,29.56,North,8,0.0,0.0,100,-99.99,,,-99.99,WSDL version 423,2013-07-26 08:48:00,
2013-07-26 04:53:00,47.7,47.7,29.59,NE,37,0.1,1.6,100,-99.99,,,-99.99,WSDL version 423,2013-07-26 08:53:00,
2013-07-26 04:58:00,47.7,47.7,29.59,NNW,334,1.4,2.5,100,-99.99,,,-99.99,WSDL version 423,2013-07-26 08:58:00,
2013-07-26 05:03:00,47.8,47.7,29.59,North,353,1.1,2.5,100,-99.99,,,-99.99,WSDL version 423,2013-07-26 09:03:00,
2013-07-26 05:08:00,47.8,47.8,29.56,North,354,1.2,2.2,100,-99.99,,,-99.99,WSDL version 423,2013-07-26 09:08:00,
2013-07-26 05:13:00,47.8,47.8,29.56,NNW,340,1.6,2.5,100,-99.99,,,-99.99,WSDL version 423,2013-07-26 09:13:00,
2013-07-26 05:18:00,47.8,47.8,29.56,North,349,2.1,3.4,100,-99.99,,,-99.99,WSDL version 423,2013-07-26 09:18:00,
2013-07-26 05:23:00,47.7,47.7,29.56,North,3,1.5,3.4,100,-99.99,,,-99.99,WSDL version 423,2013-07-26 09:23:00,
2013-07-26 05:28:00,47.7,47.7,29.56,NNW,340,1.3,2.9,100,-99.99,,,-99.99,WSDL version 423,2013-07-26 09:28:00,
2013-07-26 05:33:00,47.6,47.6,29.56,NNW,332,2.0,3.1,100,-99.99,,,-99.99,WSDL version 423,2013-07-26 09:33:00,
2013-07-26 05:38:00,47.7,47.7,29.59,North,10,1.0,3.1,100,-99.99,,,-99.99,WSDL version 423,2013-07-26 09:38:00,
2013-07-26 05:43:00,47.8,47.8,29.59,NW,315,0.3,2.7,100,-99.99,,,-99.99,WSDL version 423,2013-07-26 09:43:00,
2013-07-26 05:48:00,47.7,47.7,29.59,North,3,1.7,2.5,100,-99.99,,,-99.99,WSDL version 423,2013-07-26 09:48:00,
2013-07-26 05:53:00,47.7,47.7,29.56,North,8,1.0,2.5,100,-99.99,,,-99.99,WSDL version 423,2013-07-26 09:53:00,
2013-07-26 05:58:00,47.7,47.7,29.56,NNW,335,0.0,2.5,100,-99.99,,,-99.99,WSDL version 423,2013-07-26 09:58:00,
2013-07-26 06:03:00,47.8,47.8,29.56,NNW,345,0.2,1.3,100,-99.99,,,-99.99,WSDL version 423,2013-07-26 10:03:00,
2013-07-26 06:08:00,47.8,47.8,29.59,North,360,0.0,1.3,100,-99.99,,,-99.99,WSDL version 423,2013-07-26 10:08:00,
2013-07-26 06:13:00,48.0,48.0,29.59,NNW,335,0.0,1.3,100,-99.99,,,-99.99,WSDL version 423,2013-07-26 10:13:00,
2013-07-26 06:18:00,48.1,48.1,29.59,North,360,1.6,2.7,100,-99.99,,,-99.99,WSDL version 423,2013-07-26 10:18:00,
2013-07-26 06:23:00,48.4,48.4,29.56,NE,35,1.4,2.9,100,-99.99,,,-99.99,WSDL version 423,2013-07-26 10:23:00,
2013-07-26 06:28:00,49.2,49.2,29.56,NNW,345,1.1,2.9,100,-99.99,,,-99.99,WSDL version 423,2013-07-26 10:28:00,
2013-07-26 06:33:00,51.0,51.0,29.56,North,352,2.0,2.9,100,-99.99,,,-99.99,WSDL version 423,2013-07-26 10:33:00,
2013-07-26 06:38:00,52.3,52.3,29.56,North,358,1.4,2.7,100,-99.99,,,-99.99,WSDL version 423,2013-07-26 10:38:00,
2013-07-26 06:43:00,52.4,52.4,29.56,North,6,1.2,2.7,100,-99.99,,,-99.99,WSDL version 423,2013-07-26 10:43:00,
2013-07-26 06:48:00,52.4,52.4,29.56,North,353,1.3,2.2,100,-99.99,,,-99.99,WSDL version 423,2013-07-26 10:48:00,
2013-07-26 06:53:00,53.1,53.1,29.56,NNW,346,2.1,2.7,100,-99.99,,,-99.99,WSDL version 423,2013-07-26 10:53:00,
2013-07-26 06:58:00,53.5,53.4,29.56,NNW,333,1.5,3.4,100,-99.99,,,-99.99,WSDL version 423,2013-07-26 10:58:00,
2013-07-26 07:03:00,53.1,53.1,29.56,North,3,2.5,3.4,99,-99.99,,,-99.99,WSDL version 423,2013-07-26 11:03:00,
2013-07-26 07:08:00,53.9,53.6,29.59,North,360,1.9,3.4,99,-99.99,,,-99.99,WSDL version 423,2013-07-26 11:08:00,
2013-07-26 07:13:00,54.7,54.0,29.59,NNE,15,1.4,2.7,97,-99.99,,,-99.99,WSDL version 423,2013-07-26 11:13:00,
2013-07-26 07:18:00,54.5,53.2,29.59,North,352,1.9,2.7,94,-99.99,,,-99.99,WSDL version 423,2013-07-26 11:18:00,
2013-07-26 07:23:00,54.1,52.1,29.59,North,10,1.8,2.7,92,-99.99,,,-99.99,WSDL version 423,2013-07-26 11:23:00,
2013-07-26 07:28:00,53.9,51.7,29.59,North,354,2.1,2.9,92,-99.99,,,-99.99,WSDL version 423,2013-07-26 11:28:00,
2013-07-26 07:33:00,54.6,52.5,29.59,North,355,1.5,3.1,93,-99.99,,,-99.99,WSDL version 423,2013-07-26 11:33:00,
2013-07-26 07:38:00,55.8,53.9,29.56,North,5,1.3,3.1,93,-99.99,,,-99.99,WSDL version 423,2013-07-26 11:38:00,
2013-07-26 07:43:00,57.1,54.9,29.56,NNE,14,1.8,3.1,91,-99.99,,,-99.99,WSDL version 423,2013-07-26 11:43:00,
2013-07-26 07:48:00,57.4,54.2,29.56,North,3,1.5,3.1,88,-99.99,,,-99.99,WSDL version 423,2013-07-26 11:48:00,
2013-07-26 07:53:00,57.1,53.1,29.59,North,8,1.2,2.7,86,-99.99,,,-99.99,WSDL version 423,2013-07-26 11:53:00,
2013-07-26 07:58:00,57.2,52.7,29.59,NNW,343,1.9,2.7,84,-99.99,,,-99.99,WSDL version 423,2013-07-26 11:58:00,
2013-07-26 08:03:00,57.4,52.7,29.59,North,354,1.9,2.7,83,-99.99,,,-99.99,WSDL version 423,2013-07-26 12:03:00,
2013-07-26 08:08:00,57.6,52.7,29.59,North,360,1.4,2.7,84,-99.99,,,-99.99,WSDL version 423,2013-07-26 12:08:00,
2013-07-26 08:13:00,58.2,53.5,29.59,North,355,1.5,3.1,84,-99.99,,,-99.99,WSDL version 423,2013-07-26 12:13:00,
2013-07-26 08:18:00,59.0,54.2,29.59,North,6,2.2,3.1,83,-99.99,,,-99.99,WSDL version 423,2013-07-26 12:18:00,
2013-07-26 08:28:00,61.5,55.3,29.56,North,352,2.2,4.3,79,-99.99,,,-99.99,WSDL version 423,2013-07-26 12:28:00,
2013-07-26 08:33:00,62.5,55.0,29.56,North,350,2.3,3.6,75,-99.99,,,-99.99,WSDL version 423,2013-07-26 12:33:00,
2013-07-26 08:38:00,63.3,53.9,29.56,North,3,2.8,3.6,70,-99.99,,,-99.99,WSDL version 423,2013-07-26 12:38:00,
2013-07-26 08:48:00,66.0,56.0,29.56,North,358,1.2,3.4,68,-99.99,,,-99.99,WSDL version 423,2013-07-26 12:48:00,
2013-07-26 08:53:00,67.0,54.8,29.56,North,352,1.3,3.8,65,-99.99,,,-99.99,WSDL version 423,2013-07-26 12:53:00,
2013-07-26 08:58:00,67.2,53.8,29.56,North,6,1.4,3.8,59,-99.99,,,-99.99,WSDL version 423,2013-07-26 12:58:00,
2013-07-26 09:03:00,66.1,51.0,29.56,North,349,2.5,4.7,60,-99.99,,,-99.99,WSDL version 423,2013-07-26 13:03:00,
2013-07-26 09:08:00,65.8,52.4,29.59,North,360,1.4,4.7,63,-99.99,,,-99.99,WSDL version 423,2013-07-26 13:08:00,
2013-07-26 09:13:00,66.6,53.4,29.59,North,349,1.7,3.8,62,-99.99,,,-99.99,WSDL version 423,2013-07-26 13:13:00,
2013-07-26 09:18:00,67.6,53.7,29.59,North,355,2.9,4.0,60,-99.99,,,-99.99,WSDL version 423,2013-07-26 13:18:00,
2013-07-26 09:23:00,68.6,54.5,29.56,NE,35,1.2,4.0,61,-99.99,,,-99.99,WSDL version 423,2013-07-26 13:23:00,
2013-07-26 09:28:00,69.5,54.6,29.56,NNW,338,0.0,3.1,60,-99.99,,,-99.99,WSDL version 423,2013-07-26 13:28:00,
2013-07-26 09:33:00,70.3,54.3,29.56,North,358,1.8,3.1,57,-99.99,,,-99.99,WSDL version 423,2013-07-26 13:33:00,
2013-07-26 09:38:00,70.3,52.5,29.56,North,8,2.9,3.6,50,-99.99,,,-99.99,WSDL version 423,2013-07-26 13:38:00,
2013-07-26 09:43:00,70.0,50.5,29.56,North,353,1.9,4.9,50,-99.99,,,-99.99,WSDL version 423,2013-07-26 13:43:00,
2013-07-26 09:48:00,71.0,50.7,29.56,North,3,2.8,5.6,48,-99.99,,,-99.99,WSDL version 423,2013-07-26 13:48:00,
2013-07-26 09:53:00,72.0,50.0,29.56,NNW,338,2.4,5.6,46,-99.99,,,-99.99,WSDL version 423,2013-07-26 13:53:00,
2013-07-26 09:58:00,73.4,51.1,29.56,North,360,1.9,5.4,44,-99.99,,,-99.99,WSDL version 423,2013-07-26 13:58:00,
2013-07-26 10:03:00,74.5,49.4,29.56,North,360,3.5,4.9,41,-99.99,,,-99.99,WSDL version 423,2013-07-26 14:03:00,
2013-07-26 10:08:00,74.9,48.5,29.56,NNW,343,3.3,5.6,39,-99.99,,,-99.99,WSDL version 423,2013-07-26 14:08:00,
2013-07-26 10:13:00,74.1,46.5,29.56,North,357,3.1,5.6,38,-99.99,,,-99.99,WSDL version 423,2013-07-26 14:13:00,
2013-07-26 10:18:00,74.5,48.2,29.56,NNW,329,2.4,5.4,40,-99.99,,,-99.99,WSDL version 423,2013-07-26 14:18:00,
2013-07-26 10:23:00,74.9,47.7,29.56,North,357,3.1,6.0,37,-99.99,,,-99.99,WSDL version 423,2013-07-26 14:23:00,
2013-07-26 10:28:00,74.0,47.1,29.56,NNW,340,3.1,6.0,37,-99.99,,,-99.99,WSDL version 423,2013-07-26 14:28:00,
2013-07-26 10:33:00,74.7,48.5,29.56,NNW,346,1.7,4.9,41,-99.99,,,-99.99,WSDL version 423,2013-07-26 14:33:00,
2013-07-26 10:38:00,75.0,47.7,29.56,NNW,340,3.0,4.3,38,-99.99,,,-99.99,WSDL version 423,2013-07-26 14:38:00,
2013-07-26 10:43:00,76.3,49.4,29.56,North,10,1.2,4.3,38,-99.99,,,-99.99,WSDL version 423,2013-07-26 14:43:00,
2013-07-26 10:48:00,77.1,49.1,29.56,NNE,25,3.1,5.8,35,-99.99,,,-99.99,WSDL version 423,2013-07-26 14:48:00,
2013-07-26 10:53:00,77.0,47.0,29.56,NNW,348,2.5,5.8,34,-99.99,,,-99.99,WSDL version 423,2013-07-26 14:53:00,
2013-07-26 10:58:00,77.1,47.8,29.56,NNW,330,1.6,4.9,36,-99.99,,,-99.99,WSDL version 423,2013-07-26 14:58:00,
2013-07-26 11:03:00,77.9,48.8,29.56,NNW,343,2.1,4.0,35,-99.99,,,-99.99,WSDL version 423,2013-07-26 15:03:00,
2013-07-26 11:08:00,78.2,48.4,29.56,NNE,15,1.7,4.0,36,-99.99,,,-99.99,WSDL version 423,2013-07-26 15:08:00,
2013-07-26 11:13:00,78.0,48.1,29.56,North,352,0.4,4.0,35,-99.99,,,-99.99,WSDL version 423,2013-07-26 15:13:00,
2013-07-26 11:18:00,78.2,47.7,29.56,NNW,343,2.3,4.0,35,-99.99,,,-99.99,WSDL version 423,2013-07-26 15:18:00,
2013-07-26 11:23:00,78.5,47.7,29.56,North,349,2.2,4.7,33,-99.99,,,-99.99,WSDL version 423,2013-07-26 15:23:00,
2013-07-26 11:28:00,79.3,47.3,29.56,North,3,2.5,4.7,33,-99.99,,,-99.99,WSDL version 423,2013-07-26 15:28:00,
2013-07-26 11:33:00,80.3,48.5,29.56,NNW,338,2.5,5.6,31,-99.99,,,-99.99,WSDL version 423,2013-07-26 15:33:00,
2013-07-26 11:38:00,80.5,47.7,29.53,NNW,340,1.4,5.6,31,-99.99,,,-99.99,WSDL version 423,2013-07-26 15:38:00,
2013-07-26 11:43:00,80.8,47.3,29.53,NNE,18,2.5,4.3,31,-99.99,,,-99.99,WSDL version 423,2013-07-26 15:43:00,
2013-07-26 11:48:00,81.4,48.4,29.53,NNW,338,0.5,4.3,32,-99.99,,,-99.99,WSDL version 423,2013-07-26 15:48:00,
2013-07-26 11:53:00,81.6,46.7,29.53,North,358,2.6,5.8,30,-99.99,,,-99.99,WSDL version 423,2013-07-26 15:53:00,
2013-07-26 11:58:00,81.8,46.8,29.53,South,180,1.0,5.8,30,-99.99,,,-99.99,WSDL version 423,2013-07-26 15:58:00,
2013-07-26 12:03:00,82.0,47.2,29.53,NNW,348,3.1,6.0,29,-99.99,,,-99.99,WSDL version 423,2013-07-26 16:03:00,
2013-07-26 12:08:00,81.7,46.5,29.53,North,360,1.9,6.0,30,-99.99,,,-99.99,WSDL version 423,2013-07-26 16:08:00,
2013-07-26 12:13:00,81.4,45.1,29.53,NNW,348,4.3,6.5,26,-99.99,,,-99.99,WSDL version 423,2013-07-26 16:13:00,
2013-07-26 12:18:00,79.8,42.9,29.53,WSW,240,2.5,6.5,28,-99.99,,,-99.99,WSDL version 423,2013-07-26 16:18:00,
2013-07-26 12:23:00,80.2,45.1,29.53,NNW,335,2.8,6.3,29,-99.99,,,-99.99,WSDL version 423,2013-07-26 16:23:00,
2013-07-26 12:28:00,81.7,46.7,29.53,North,350,1.0,5.6,29,-99.99,,,-99.99,WSDL version 423,2013-07-26 16:28:00,
2013-07-26 12:33:00,82.0,46.1,29.53,NNE,14,2.7,6.5,28,-99.99,,,-99.99,WSDL version 423,2013-07-26 16:33:00,
2013-07-26 12:38:00,80.2,43.4,29.53,NNW,330,4.1,7.6,27,-99.99,,,-99.99,WSDL version 423,2013-07-26 16:38:00,
2013-07-26 12:43:00,79.8,45.5,29.53,North,349,3.3,7.6,30,-99.99,,,-99.99,WSDL version 423,2013-07-26 16:43:00,
2013-07-26 12:48:00,80.5,45.9,29.53,NNW,348,3.0,5.6,29,-99.99,,,-99.99,WSDL version 423,2013-07-26 16:48:00,
2013-07-26 12:53:00,81.5,47.0,29.53,NNW,328,1.6,6.3,29,-99.99,,,-99.99,WSDL version 423,2013-07-26 16:53:00,
2013-07-26 12:58:00,81.1,46.4,29.53,North,352,1.8,6.3,30,-99.99,,,-99.99,WSDL version 423,2013-07-26 16:58:00,
2013-07-26 13:03:00,81.5,47.1,29.53,NE,43,2.0,5.4,30,-99.99,,,-99.99,WSDL version 423,2013-07-26 17:03:00,
2013-07-26 13:08:00,81.4,45.1,29.53,North,352,4.9,7.2,27,-99.99,,,-99.99,WSDL version 423,2013-07-26 17:08:00,
2013-07-26 13:13:00,80.5,43.5,29.53,NNW,343,4.3,7.8,28,-99.99,,,-99.99,WSDL version 423,2013-07-26 17:13:00,
2013-07-26 13:18:00,80.5,45.0,29.53,NNW,332,1.5,7.8,30,-99.99,,,-99.99,WSDL version 423,2013-07-26 17:18:00,
2013-07-26 13:23:00,81.1,46.1,29.53,NNW,345,3.0,6.0,29,-99.99,,,-99.99,WSDL version 423,2013-07-26 17:23:00,
2013-07-26 13:28:00,81.5,46.4,29.53,NNE,20,2.8,6.0,29,-99.99,,,-99.99,WSDL version 423,2013-07-26 17:28:00,
2013-07-26 13:33:00,82.0,47.0,29.53,SW,231,1.9,4.3,29,-99.99,,,-99.99,WSDL version 423,2013-07-26 17:33:00,
2013-07-26 13:38:00,81.6,46.3,29.53,SW,222,0.7,3.8,30,-99.99,,,-99.99,WSDL version 423,2013-07-26 17:38:00,
2013-07-26 13:43:00,82.2,47.4,29.53,WNW,287,2.4,4.3,29,-99.99,,,-99.99,WSDL version 423,2013-07-26 17:43:00,
2013-07-26 13:53:00,83.5,47.9,29.53,NNE,28,2.5,4.9,29,-99.99,,,-99.99,WSDL version 423,2013-07-26 17:53:00,
2013-07-26 13:58:00,83.3,45.0,29.53,NNW,343,2.7,6.3,26,-99.99,,,-99.99,WSDL version 423,2013-07-26 17:58:00,
2013-07-26 14:03:00,82.2,43.5,29.53,NNW,333,3.1,6.3,27,-99.99,,,-99.99,WSDL version 423,2013-07-26 18:03:00,
2013-07-26 14:08:00,82.4,46.0,29.53,SW,214,1.6,6.3,29,-99.99,,,-99.99,WSDL version 423,2013-07-26 18:08:00,
2013-07-26 14:13:00,82.9,46.0,29.53,NNW,328,1.9,3.4,28,-99.99,,,-99.99,WSDL version 423,2013-07-26 18:13:00,
2013-07-26 14:18:00,82.3,42.7,29.53,NW,326,3.2,6.3,25,-99.99,,,-99.99,WSDL version 423,2013-07-26 18:18:00,
2013-07-26 14:23:00,82.1,43.5,29.50,NNW,333,3.8,6.3,25,-99.99,,,-99.99,WSDL version 423,2013-07-26 18:23:00,
2013-07-26 14:28:00,81.6,41.8,29.50,North,4,4.0,8.5,24,-99.99,,,-99.99,WSDL version 423,2013-07-26 18:28:00,
2013-07-26 14:33:00,82.2,43.1,29.50,WNW,293,0.0,8.5,26,-99.99,,,-99.99,WSDL version 423,2013-07-26 18:33:00,
2013-07-26 14:38:00,83.0,43.6,29.50,North,353,3.8,5.6,24,-99.99,,,-99.99,WSDL version 423,2013-07-26 18:38:00,
2013-07-26 14:43:00,82.4,43.1,29.50,SSW,205,1.1,5.6,26,-99.99,,,-99.99,WSDL version 423,2013-07-26 18:43:00,
2013-07-26 14:53:00,82.4,43.5,29.50,NW,304,1.0,4.5,26,-99.99,,,-99.99,WSDL version 423,2013-07-26 18:53:00,
2013-07-26 14:58:00,82.0,43.5,29.50,West,263,0.9,4.5,27,-99.99,,,-99.99,WSDL version 423,2013-07-26 18:58:00,
2013-07-26 15:03:00,82.7,45.0,29.50,NNW,329,1.8,4.3,25,-99.99,,,-99.99,WSDL version 423,2013-07-26 19:03:00,
2013-07-26 15:08:00,81.8,43.4,29.50,NE,50,3.2,4.9,25,-99.99,,,-99.99,WSDL version 423,2013-07-26 19:08:00,
2013-07-26 15:13:00,80.9,42.8,29.50,WNW,303,1.1,4.9,26,-99.99,,,-99.99,WSDL version 423,2013-07-26 19:13:00,
2013-07-26 15:18:00,81.0,45.5,29.50,West,278,1.2,4.0,29,-99.99,,,-99.99,WSDL version 423,2013-07-26 19:18:00,
2013-07-26 15:23:00,81.6,46.6,29.50,SW,215,0.2,3.4,30,-99.99,,,-99.99,WSDL version 423,2013-07-26 19:23:00,
2013-07-26 15:33:00,83.0,47.5,29.50,NW,315,2.5,4.3,27,-99.99,,,-99.99,WSDL version 423,2013-07-26 19:33:00,
2013-07-26 15:38:00,82.3,44.7,29.50,NW,312,3.1,5.4,27,-99.99,,,-99.99,WSDL version 423,2013-07-26 19:38:00,
2013-07-26 15:43:00,82.0,46.4,29.50,NNW,329,1.0,5.4,29,-99.99,,,-99.99,WSDL version 423,2013-07-26 19:43:00,
2013-07-26 15:53:00,80.7,45.0,29.50,NNW,338,2.2,6.5,28,-99.99,,,-99.99,WSDL version 423,2013-07-26 19:53:00,
2013-07-26 15:58:00,80.1,45.6,29.50,WNW,285,0.5,6.5,30,-99.99,,,-99.99,WSDL version 423,2013-07-26 19:58:00,
2013-07-26 16:03:00,79.6,45.5,29.50,WSW,253,1.7,6.3,30,-99.99,,,-99.99,WSDL version 423,2013-07-26 20:03:00,
2013-07-26 16:08:00,78.8,45.4,29.53,SE,128,2.6,6.3,31,-99.99,,,-99.99,WSDL version 423,2013-07-26 20:08:00,
2013-07-26 16:13:00,78.1,45.2,29.53,NW,315,2.3,5.4,32,-99.99,,,-99.99,WSDL version 423,2013-07-26 20:13:00,
2013-07-26 16:18:00,77.9,46.3,29.53,NW,310,1.4,6.7,33,-99.99,,,-99.99,WSDL version 423,2013-07-26 20:18:00,
2013-07-26 16:23:00,78.2,46.8,29.50,SW,233,1.9,6.7,33,-99.99,,,-99.99,WSDL version 423,2013-07-26 20:23:00,
2013-07-26 16:28:00,77.7,46.4,29.50,WSW,242,2.5,5.4,33,-99.99,,,-99.99,WSDL version 423,2013-07-26 20:28:00,
2013-07-26 16:33:00,77.5,46.6,29.50,SW,220,1.3,4.0,34,-99.99,,,-99.99,WSDL version 423,2013-07-26 20:33:00,
2013-07-26 16:38:00,77.6,47.1,29.50,NNW,335,3.5,6.3,33,-99.99,,,-99.99,WSDL version 423,2013-07-26 20:38:00,
2013-07-26 16:43:00,77.3,46.5,29.50,North,355,3.0,6.3,34,-99.99,,,-99.99,WSDL version 423,2013-07-26 20:43:00,
2013-07-26 16:48:00,77.0,46.4,29.50,NNW,329,2.5,5.4,34,-99.99,,,-99.99,WSDL version 423,2013-07-26 20:48:00,
2013-07-26 16:53:00,76.8,45.7,29.50,North,3,1.4,5.4,33,-99.99,,,-99.99,WSDL version 423,2013-07-26 20:53:00,
2013-07-26 16:58:00,76.8,45.1,29.50,North,5,3.1,5.4,31,-99.99,,,-99.99,WSDL version 423,2013-07-26 20:58:00,
2013-07-26 17:03:00,76.7,43.8,29.50,NW,323,3.2,6.3,31,-99.99,,,-99.99,WSDL version 423,2013-07-26 21:03:00,
2013-07-26 17:08:00,76.5,43.5,29.50,NNW,333,3.2,6.3,30,-99.99,,,-99.99,WSDL version 423,2013-07-26 21:08:00,
2013-07-26 17:13:00,76.6,43.4,29.50,NNW,335,1.6,5.4,30,-99.99,,,-99.99,WSDL version 423,2013-07-26 21:13:00,
2013-07-26 17:18:00,76.8,43.9,29.50,NNW,338,2.7,4.3,31,-99.99,,,-99.99,WSDL version 423,2013-07-26 21:18:00,
2013-07-26 17:23:00,76.6,43.9,29.50,NNW,329,2.9,4.5,32,-99.99,,,-99.99,WSDL version 423,2013-07-26 21:23:00,
2013-07-26 17:28:00,76.7,44.6,29.50,WSW,255,1.4,4.5,32,-99.99,,,-99.99,WSDL version 423,2013-07-26 21:28:00,
2013-07-26 17:33:00,76.8,44.8,29.50,NNW,340,1.6,3.8,32,-99.99,,,-99.99,WSDL version 423,2013-07-26 21:33:00,
2013-07-26 17:38:00,76.7,46.1,29.50,SSW,203,1.3,4.3,34,-99.99,,,-99.99,WSDL version 423,2013-07-26 21:38:00,
2013-07-26 17:43:00,76.5,46.3,29.50,NNE,30,2.4,5.8,35,-99.99,,,-99.99,WSDL version 423,2013-07-26 21:43:00,
2013-07-26 17:48:00,76.2,46.7,29.50,South,169,2.5,5.8,36,-99.99,,,-99.99,WSDL version 423,2013-07-26 21:48:00,
2013-07-26 17:53:00,75.9,47.6,29.50,WSW,245,1.9,4.3,37,-99.99,,,-99.99,WSDL version 423,2013-07-26 21:53:00,
2013-07-26 17:58:00,75.9,47.9,29.50,West,281,0.6,4.3,38,-99.99,,,-99.99,WSDL version 423,2013-07-26 21:58:00,
2013-07-26 18:03:00,75.7,48.3,29.50,NW,325,1.0,3.6,38,-99.99,,,-99.99,WSDL version 423,2013-07-26 22:03:00,
2013-07-26 18:08:00,75.5,47.7,29.50,WNW,293,0.7,4.0,38,-99.99,,,-99.99,WSDL version 423,2013-07-26 22:08:00,
2013-07-26 18:13:00,75.2,47.7,29.50,NW,325,2.7,4.3,39,-99.99,,,-99.99,WSDL version 423,2013-07-26 22:13:00,
2013-07-26 18:18:00,74.9,48.3,29.50,WNW,290,0.6,4.3,39,-99.99,,,-99.99,WSDL version 423,2013-07-26 22:18:00,
2013-07-26 18:23:00,74.6,48.2,29.50,SSW,208,1.6,3.4,40,-99.99,,,-99.99,WSDL version 423,2013-07-26 22:23:00,
2013-07-26 18:28:00,74.5,48.6,29.50,SW,220,0.3,2.9,40,-99.99,,,-99.99,WSDL version 423,2013-07-26 22:28:00,
2013-07-26 18:33:00,74.3,48.7,29.50,West,267,1.6,3.1,40,-99.99,,,-99.99,WSDL version 423,2013-07-26 22:33:00,
2013-07-26 18:38:00,74.1,48.6,29.50,WSW,243,0.4,3.6,41,-99.99,,,-99.99,WSDL version 423,2013-07-26 22:38:00,
2013-07-26 18:43:00,73.9,49.2,29.50,NNW,346,1.5,3.8,42,-99.99,,,-99.99,WSDL version 423,2013-07-26 22:43:00,
2013-07-26 18:48:00,73.7,49.2,29.50,NW,323,1.8,3.8,43,-99.99,,,-99.99,WSDL version 423,2013-07-26 22:48:00,
2013-07-26 18:53:00,73.4,49.6,29.50,West,273,2.1,3.6,43,-99.99,,,-99.99,WSDL version 423,2013-07-26 22:53:00,
2013-07-26 18:58:00,73.3,49.6,29.50,SW,219,1.8,3.8,44,-99.99,,,-99.99,WSDL version 423,2013-07-26 22:58:00,
2013-07-26 19:03:00,73.0,49.8,29.50,NW,320,1.9,3.8,44,-99.99,,,-99.99,WSDL version 423,2013-07-26 23:03:00,
2013-07-26 19:08:00,72.9,49.7,29.50,NNE,31,0.3,3.6,44,-99.99,,,-99.99,WSDL version 423,2013-07-26 23:08:00,
2013-07-26 19:13:00,72.7,49.8,29.50,NW,320,1.9,3.8,45,-99.99,,,-99.99,WSDL version 423,2013-07-26 23:13:00,
2013-07-26 19:18:00,72.5,50.0,29.50,NW,313,1.5,3.8,45,-99.99,,,-99.99,WSDL version 423,2013-07-26 23:18:00,
2013-07-26 19:23:00,72.4,50.4,29.50,SE,135,0.8,3.4,46,-99.99,,,-99.99,WSDL version 423,2013-07-26 23:23:00,
2013-07-26 19:28:00,72.2,50.3,29.50,West,265,0.6,2.5,46,-99.99,,,-99.99,WSDL version 423,2013-07-26 23:28:00,
2013-07-26 19:33:00,72.1,50.5,29.50,SSW,208,0.7,3.1,46,-99.99,,,-99.99,WSDL version 423,2013-07-26 23:33:00,
2013-07-26 19:38:00,72.0,50.7,29.50,ENE,75,0.0,3.1,48,-99.99,,,-99.99,WSDL version 423,2013-07-26 23:38:00,
2013-07-26 19:43:00,71.8,50.6,29.50,ESE,107,0.0,2.7,47,-99.99,,,-99.99,WSDL version 423,2013-07-26 23:43:00,
2013-07-26 19:48:00,71.6,50.9,29.50,SW,223,0.0,0.0,49,-99.99,,,-99.99,WSDL version 423,2013-07-26 23:48:00,
2013-07-26 19:53:00,71.4,51.3,29.50,SW,225,0.0,0.0,49,-99.99,,,-99.99,WSDL version 423,2013-07-26 23:53:00,
2013-07-26 19:58:00,71.1,51.3,29.50,SW,231,0.3,2.2,49,-99.99,,,-99.99,WSDL version 423,2013-07-26 23:58:00,
2013-07-26 20:03:00,70.6,51.2,29.50,NW,315,0.0,2.2,51,-99.99,,,-99.99,WSDL version 423,2013-07-27 00:03:00,
2013-07-26 20:08:00,70.1,51.4,29.50,NNW,338,0.0,2.0,52,-99.99,,,-99.99,WSDL version 423,2013-07-27 00:08:00,
2013-07-26 20:13:00,69.5,51.2,29.50,NNW,338,0.0,0.0,52,-99.99,,,-99.99,WSDL version 423,2013-07-27 00:13:00,
2013-07-26 20:18:00,69.0,51.4,29.50,NNW,338,0.0,0.0,54,-99.99,,,-99.99,WSDL version 423,2013-07-27 00:18:00,
2013-07-26 20:23:00,68.6,51.6,29.50,NNW,338,0.0,0.0,54,-99.99,,,-99.99,WSDL version 423,2013-07-27 00:23:00,
2013-07-26 20:28:00,68.1,51.1,29.50,NE,45,0.0,0.0,55,-99.99,,,-99.99,WSDL version 423,2013-07-27 00:28:00,
2013-07-26 20:33:00,67.7,51.3,29.50,North,360,0.0,0.9,57,-99.99,,,-99.99,WSDL version 423,2013-07-27 00:33:00,
2013-07-26 20:38:00,67.2,52.2,29.50,North,8,0.0,1.3,59,-99.99,,,-99.99,WSDL version 423,2013-07-27 00:38:00,
2013-07-26 20:43:00,66.9,52.4,29.50,North,360,0.0,1.3,60,-99.99,,,-99.99,WSDL version 423,2013-07-27 00:43:00,
2013-07-26 20:48:00,66.4,53.1,29.50,NNE,23,0.0,0.0,63,-99.99,,,-99.99,WSDL version 423,2013-07-27 00:48:00,
2013-07-26 20:53:00,66.1,53.2,29.50,NNE,23,0.0,0.0,64,-99.99,,,-99.99,WSDL version 423,2013-07-27 00:53:00,
2013-07-26 20:58:00,65.6,53.5,29.50,NNE,23,0.0,0.0,65,-99.99,,,-99.99,WSDL version 423,2013-07-27 00:58:00,
2013-07-26 21:03:00,65.1,53.3,29.50,NNE,23,0.0,0.0,66,-99.99,,,-99.99,WSDL version 423,2013-07-27 01:03:00,
2013-07-26 21:08:00,64.6,53.3,29.50,SE,135,0.0,0.0,67,-99.99,,,-99.99,WSDL version 423,2013-07-27 01:08:00,
2013-07-26 21:13:00,64.3,53.4,29.50,SE,135,0.0,0.0,68,-99.99,,,-99.99,WSDL version 423,2013-07-27 01:13:00,
2013-07-26 21:18:00,63.8,52.8,29.50,North,360,0.0,0.0,67,-99.99,,,-99.99,WSDL version 423,2013-07-27 01:18:00,
2013-07-26 21:23:00,63.4,53.0,29.50,NNW,343,0.0,0.0,69,-99.99,,,-99.99,WSDL version 423,2013-07-27 01:23:00,
2013-07-26 21:28:00,63.1,53.0,29.50,West,270,0.0,0.0,70,-99.99,,,-99.99,WSDL version 423,2013-07-27 01:28:00,
2013-07-26 21:33:00,62.8,53.3,29.50,NW,320,0.0,0.0,72,-99.99,,,-99.99,WSDL version 423,2013-07-27 01:33:00,
2013-07-26 21:38:00,62.5,53.5,29.50,NNE,13,0.0,0.0,73,-99.99,,,-99.99,WSDL version 423,2013-07-27 01:38:00,
2013-07-26 21:43:00,62.2,53.9,29.50,NW,326,1.0,1.6,76,-99.99,,,-99.99,WSDL version 423,2013-07-27 01:43:00,
2013-07-26 21:48:00,62.0,54.7,29.50,North,350,0.4,2.2,78,-99.99,,,-99.99,WSDL version 423,2013-07-27 01:48:00,
2013-07-26 21:53:00,61.8,55.2,29.50,NNW,329,1.3,2.5,80,-99.99,,,-99.99,WSDL version 423,2013-07-27 01:53:00,
2013-07-26 21:58:00,61.4,55.2,29.50,NNW,335,1.6,2.7,80,-99.99,,,-99.99,WSDL version 423,2013-07-27 01:58:00,
2013-07-26 22:03:00,61.1,54.7,29.50,NNE,20,0.0,2.7,79,-99.99,,,-99.99,WSDL version 423,2013-07-27 02:03:00,
2013-07-26 22:08:00,60.9,54.4,29.50,NNE,23,0.0,1.1,79,-99.99,,,-99.99,WSDL version 423,2013-07-27 02:08:00,
2013-07-26 22:13:00,60.7,54.5,29.50,NE,45,0.0,0.0,80,-99.99,,,-99.99,WSDL version 423,2013-07-27 02:13:00,
2013-07-26 22:18:00,60.4,54.2,29.50,NE,45,0.0,0.0,80,-99.99,,,-99.99,WSDL version 423,2013-07-27 02:18:00,
2013-07-26 22:23:00,60.1,53.9,29.50,North,5,0.0,0.0,80,-99.99,,,-99.99,WSDL version 423,2013-07-27 02:23:00,
2013-07-26 22:28:00,59.9,53.7,29.50,NW,315,0.0,0.0,81,-99.99,,,-99.99,WSDL version 423,2013-07-27 02:28:00,
2013-07-26 22:33:00,59.7,53.7,29.50,NW,318,0.0,1.1,81,-99.99,,,-99.99,WSDL version 423,2013-07-27 02:33:00,
2013-07-26 22:38:00,59.4,53.8,29.50,NNW,338,0.0,1.1,82,-99.99,,,-99.99,WSDL version 423,2013-07-27 02:38:00,
2013-07-26 22:43:00,59.2,53.8,29.50,NW,318,0.2,1.6,82,-99.99,,,-99.99,WSDL version 423,2013-07-27 02:43:00,
2013-07-26 22:53:00,58.8,54.1,29.53,NNW,340,0.0,2.0,84,-99.99,,,-99.99,WSDL version 423,2013-07-27 02:53:00,
2013-07-26 22:58:00,58.6,54.0,29.53,NW,325,0.7,2.0,86,-99.99,,,-99.99,WSDL version 423,2013-07-27 02:58:00,
2013-07-26 23:03:00,58.5,54.2,29.53,North,360,0.0,1.3,86,-99.99,,,-99.99,WSDL version 423,2013-07-27 03:03:00,
2013-07-26 23:08:00,58.4,54.1,29.50,North,360,0.0,0.9,86,-99.99,,,-99.99,WSDL version 423,2013-07-27 03:08:00,
2013-07-26 23:13:00,58.1,53.7,29.50,North,11,0.0,0.0,86,-99.99,,,-99.99,WSDL version 423,2013-07-27 03:13:00,
2013-07-26 23:23:00,57.9,53.9,29.50,NW,315,0.0,0.0,87,-99.99,,,-99.99,WSDL version 423,2013-07-27 03:23:00,
2013-07-26 23:28:00,57.7,53.8,29.50,West,278,0.0,1.1,88,-99.99,,,-99.99,WSDL version 423,2013-07-27 03:28:00,
2013-07-26 23:33:00,57.6,54.0,29.50,ENE,63,0.0,1.1,88,-99.99,,,-99.99,WSDL version 423,2013-07-27 03:33:00,
2013-07-26 23:38:00,57.4,54.0,29.50,NE,56,0.0,0.0,89,-99.99,,,-99.99,WSDL version 423,2013-07-27 03:38:00,
2013-07-26 23:43:00,57.1,53.6,29.50,NNW,338,0.0,0.0,88,-99.99,,,-99.99,WSDL version 423,2013-07-27 03:43:00,
2013-07-26 23:48:00,57.0,53.5,29.50,North,360,0.0,0.0,89,-99.99,,,-99.99,WSDL version 423,2013-07-27 03:48:00,
2013-07-26 23:53:00,56.8,53.7,29.50,North,360,0.0,0.0,90,-99.99,,,-99.99,WSDL version 423,2013-07-27 03:53:00,
2013-07-26 23:58:00,56.6,53.5,29.50,NNE,14,0.0,0.0,89,-99.99,,,-99.99,WSDL version 423,2013-07-27 03:58:00,